Tracking 19628 objects as of 26-May-2019
HD Live streaming from Space Station
objects crossing your sky now
Watch Starlink satellites crossing your sky!

VANGUARD 2

Track VANGUARD 2 now!
10-day predictions
VANGUARD 2 is classified as:


NORAD ID: 11
Int'l Code: 1959-001A
Perigee: 559.8 km
Apogee: 2,946.3 km
Inclination: 32.9 °
Period: 121.5 minutes
Semi major axis: 8124 km
RCS: 0.3823 m2 (medium)
Launch date: February 17, 1959
Source: United States (US)
Launch site: AIR FORCE EASTERN TEST RANGE (AFETR)
aabbcc
Your satellite tracking list
Your tracking list is empty




NASA's NSSDC Master Catalog

Two Line Element Set (TLE):
1    11U 59001A   19145.94119942 -.00000007 +00000-0 -23150-4 0  9990
2    11 032.8756 073.9412 1468814 218.3769 130.2813 11.85622660228859
Source of the keplerian elements: AFSPC